Talkeetna, AK

2:12 AM AKDT on October 01, 2016 (GMT -0800)
Talkeetna

Weather History for PATK - April, 2013

Change the Weather History Date:

Wednesday, April 17, 2013

  Actual Average Record
Temperature  
Mean Temperature 29 °F -  
Max Temperature 39 °F 45 °F 59 °F (1965)
Min Temperature 19 °F 25 °F -10 °F (1963)
Degree Days  
Heating Degree Days 36    
Moisture  
Dew Point 8 °F    
Average Humidity 40    
Maximum Humidity 58    
Minimum Humidity 25    
Precipitation  
Precipitation 0.00 in - - ()
Sea Level Pressure  
Sea Level Pressure 30.12 in    
Wind  
Wind Speed 5 mph (North)    
Max Wind Speed 12 mph    
Max Gust Speed 22 mph    
Visibility 10 miles    
Events      
Averages and records for this station are not official NWS values.
T = Trace of Precipitation, MM = Missing Value Source: NWS Daily Summary

Daily Weather History Graph

Daily Weather History Graph

Search for Another Location

Airport or City:

Trip Planner

Search our weather history database for the weather conditions in past years. The results will help you decide how hot, cold, wet, or windy it might be!

Date:

Astronomy

Apr. 17, 2013 Rise Set
Actual Time 6:27 AM AKDT 9:33 PM AKDT
Civil Twilight 5:35 AM AKDT 10:26 PM AKDT
Nautical Twilight 4:22 AM AKDT 11:41 PM AKDT
Astronomical Twilight 2:32 AM AKDT 1:27 AM AKDT
Moon 11:14 AM AKDT (4/17) 3:56 AM AKDT (4/17)
Length of Visible Light 16h 50m
Length of Day
15h 05m
Waxing Crescent, 44% of the Moon is Illuminated
Apr 17
Waxing Crescent
Apr 18
First Quarter
Apr 25
Full
May 2
Last Quarter
May 9
New

Hourly Weather History & Observations

Time (AKDT) Temp. Windchill Dew Point Humidity Pressure Visibility Wind Dir Wind Speed Gust Speed Precip Events Conditions
12:53 AM 24.1 °F 17.0 °F 5.0 °F 44% 30.12 in 10.0 mi North 5.8 mph - N/A   Clear
1:53 AM 23.0 °F 15.8 °F 3.9 °F 44% 30.12 in 10.0 mi North 5.8 mph - N/A   Clear
2:53 AM 21.0 °F 14.6 °F 3.0 °F 46% 30.12 in 10.0 mi Variable 4.6 mph - N/A   Clear
3:53 AM 21.0 °F 13.4 °F 3.0 °F 46% 30.12 in 10.0 mi NNW 5.8 mph - N/A   Clear
4:53 AM 19.9 °F 11.1 °F 3.0 °F 48% 30.11 in 10.0 mi NNW 6.9 mph - N/A   Mostly Cloudy
5:53 AM 21.0 °F 16.2 °F 5.0 °F 50% 30.10 in 10.0 mi North 3.5 mph - N/A   Overcast
6:53 AM 21.9 °F 17.2 °F 6.1 °F 51% 30.10 in 10.0 mi North 3.5 mph - N/A   Overcast
7:53 AM 21.9 °F - 9.0 °F 58% 30.11 in 10.0 mi Calm Calm - 0.00 in   Overcast
8:53 AM 26.1 °F - 10.9 °F 53% 30.10 in 10.0 mi Calm Calm - N/A   Overcast
9:53 AM 28.9 °F 22.8 °F 10.9 °F 47% 30.10 in 10.0 mi Variable 5.8 mph - N/A   Mostly Cloudy
10:53 AM 30.9 °F 26.2 °F 12.0 °F 46% 30.10 in 10.0 mi NW 4.6 mph - N/A   Clear
11:53 AM 32.0 °F 28.7 °F 12.0 °F 44% 30.10 in 10.0 mi Variable 3.5 mph - N/A   Clear
12:53 PM 35.1 °F 32.2 °F 12.0 °F 39% 30.09 in 10.0 mi East 3.5 mph - N/A   Clear
1:53 PM 37.9 °F - 9.0 °F 30% 30.09 in 10.0 mi Calm Calm - N/A   Clear
2:53 PM 39.0 °F 35.7 °F 10.0 °F 30% 30.10 in 10.0 mi Variable 4.6 mph - N/A   Clear
3:53 PM 39.0 °F 34.0 °F 9.0 °F 29% 30.11 in 10.0 mi Variable 6.9 mph - N/A   Clear
4:53 PM 39.9 °F 35.1 °F 10.0 °F 29% 30.11 in 10.0 mi NE 6.9 mph - N/A   Clear
5:53 PM 39.0 °F 32.8 °F 10.9 °F 32% 30.12 in 10.0 mi NE 9.2 mph 16.1 mph N/A   Clear
6:53 PM 39.0 °F 32.3 °F 10.0 °F 30% 30.12 in 10.0 mi NNE 10.4 mph - N/A   Clear
7:53 PM 37.0 °F 29.3 °F 10.9 °F 34% 30.14 in 10.0 mi NNE 11.5 mph 21.9 mph N/A   Clear
8:53 PM 34.0 °F 26.6 °F 9.0 °F 35% 30.16 in 10.0 mi North 9.2 mph 16.1 mph N/A   Clear
9:53 PM 30.9 °F 24.3 °F 9.0 °F 40% 30.18 in 10.0 mi North 6.9 mph - N/A   Clear
10:53 PM 28.9 °F 22.8 °F 8.1 °F 41% 30.19 in 10.0 mi North 5.8 mph - N/A   Clear
11:53 PM 27.0 °F 18.7 °F 8.1 °F 45% 30.19 in 10.0 mi North 8.1 mph - N/A   Clear